www.pogodaiklimat.ru

Погода и климат >> Архив погоды >> Малайзия >> Куантане


ПОГОДА в Куантане

  • Прогноз погоды в Куантане
  • Монитор погоды в Куантане

АРХИВ ПОГОДЫ в Куантане

Время (UTC), дата Ветер
(напр.,м/с)
 
Видим.   Явления Облачность Т
(С)
Тd
(С)
f
(%)
Тe
(С)
Тes
(С)
Комфортность P
(гПа)
Po
(гПа)
Тmin
(С)
Tmax
(С)
R
(мм)
R24
(мм)
S
(см)
00 16.04 штиль 0 15 км мгла 8/1 <50 м
[Cu hum Ac trans Ci fib]
+26.4 +25.5 95 +39 +40 очень
душно
1010.5 1008.7 +24.9
03 16.04 ЮВ 2 16 км мгла 8/4 570 м
[Cu hum Ac trans Ci fib]
+32.2 +27.1 75 +51 +57 опасность
перегрева
1011.7 1009.9
06 16.04 В 3 17 км мгла 8/4 540 м
[Cu hum Ac trans Ci fib]
+33.7 +26.0 64 +49 +56 опасность
перегрева
1009.2 1007.4
09 16.04 В 3 17 км мгла 8/3 570 м
[Cu hum Ac trans Ci fib]
+32.8 +25.4 65 +47 +49 опасность
перегрева
1006.6 1004.8
12 16.04 В 2 15 км мгла 9/1 720 м
[Sc Ac trans Ci sp]
+29.7 +25.4 78 +44 +44 опасность
перегрева
1009.1 1007.3 +34.4
15 16.04 С 1 14 км зарница 9/3 500 м
[Cb cap Ac trans Ci sp]
+27.1 +24.9 88 +39 +39 очень
душно
1012.0 1010.2
18 16.04 СЗ 1 12 км мгла 9/3 720 м
[Sc Ac trans Ci sp]
+26.5 +24.6 89 +37 +37 очень
душно
1011.4 1009.6
21 16.04 Ю 1 9000 м дымка 8/4 150 м
[St Ac trans Ci sp]
+25.0 +24.2 95 +34 +34 очень
душно
1010.2 1008.4
00 17.04 С 1 12 км мгла 9/1 <50 м
[Sc Ac lent Ci sp]
+25.2 +24.2 94 +35 +36 очень
душно
1011.6 1009.8 +24.3
03 17.04 Ю 1 15 км мгла 9/5 570 м
[Cu med, cong Ac lent Ci sp]
+31.2 +26.2 75 +47 +53 опасность
перегрева
1011.9 1010.1
06 17.04 ЮВ 3 15 км мгла 9/4 500 м
[Cb cap Ac lent Ci sp]
+34.8 +25.4 58 +49 +56 опасность
перегрева
1009.2 1007.4
09 17.04 В 2 14 км мгла 9/3 570 м
[Cu med, cong Ac trans Ci sp]
+31.7 +26.0 72 +47 +50 опасность
перегрева
1007.0 1005.2
12 17.04 ЮВ 1 12 км мгла 8/1 750 м
[Sc Ac trans Ci fib]
+29.0 +25.6 82 +43 +43 опасность
перегрева
1008.6 1006.8 +35.1
15 17.04 З 1 12 км мгла 8/1 720 м
[Sc Ac trans Ci fib]
+26.8 +25.3 92 +39 +39 очень
душно
1010.8 1009.0
18 17.04 СЗ 1 11 км мгла 8/1 720 м
[Sc Ac trans Ci fib]
+25.5 +24.5 94 +36 +36 очень
душно
1009.7 1007.9
21 17.04 С 1 10 км мгла 8/3 720 м
[Sc Ac trans Ci sp]
+24.7 +23.9 95 +34 +34 очень
душно
1008.7 1006.9
00 18.04 штиль 0 10 км мгла 8/3 1000 м
[Cu hum Ac cast Ci sp]
+25.7 +24.5 93 +36 +37 очень
душно
1009.9 1008.1 +24.4
03 18.04 С 1 18 км мгла 9/4 570 м
[Cu med, cong Ac trans Ci sp]
+31.2 +25.7 73 +46 +53 опасность
перегрева
1011.5 1009.7
06 18.04 В 3 18 км мгла 9/4 570 м
[Cu med, cong Ac trans Ci sp]
+34.2 +26.2 63 +50 +57 опасность
перегрева
1009.5 1007.7
09 18.04 В 3 18 км мгла 8/3 600 м
[Cu med, cong Ac trans Ci sp]
+33.1 +25.8 66 +49 +51 опасность
перегрева
1006.8 1005.0
12 18.04 С 2 12 км мгла 9/3 720 м
[Sc Ac trans Ci sp]
+29.5 +25.0 77 +43 +43 опасность
перегрева
1007.9 1006.1 +34.6
15 18.04 С 1 12 км мгла 9/3 720 м
[Sc Ac lent Ci sp]
+27.2 +24.5 85 +38 +38 очень
душно
1010.6 1008.8
18 18.04 С 1 8000 м мгла 9/1 720 м
[Sc Ac lent Ci sp]
+25.8 +24.0 90 +36 +36 очень
душно
1010.0 1008.2
21 18.04 штиль 0 10 км мгла 9/1 720 м
[Sc Ac trans Ci sp]
+25.0 +23.8 93 +34 +34 очень
душно
1008.4 1006.6
00 19.04 штиль 0 10 км мгла 9/1 1000 м
[Sc Ac trans Ci sp]
+25.2 +23.9 93 +35 +35 очень
душно
1009.6 1007.8 +24.1
03 19.04 СЗ 2 16 км мгла 8/4 600 м
[Cu med, cong Ac trans Ci sp]
+31.2 +25.3 71 +45 +52 опасность
перегрева
1010.4 1008.6
06 19.04 ЮВ 2 15 км мгла 8/4 570 м
[Cu med, cong Ac trans Ci sp]
+34.0 +26.6 65 +51 +60 опасность
перегрева
1007.4 1005.7
09 19.04 В 3 18 км мгла 8/3 570 м
[Cu med, cong Ac trans Ci sp]
+33.3 +26.6 68 +50 +53 опасность
перегрева
1004.5 1002.8
12 19.04 С 2 12 км зарница 9/3 500 м
[Cb cap Ac lent Ci sp]
+29.9 +24.6 73 +42 +42 опасность
перегрева
1006.7 1004.9 +34.6
15 19.04 С 1 10 км мгла 9/1 720 м
[Sc Ac trans Ci sp]
+27.5 +24.7 85 +39 +39 очень
душно
1008.9 1007.1
18 19.04 штиль 0 10 км мгла 9/1 720 м
[Sc Ac trans Ci sp]
+27.6 +24.8 85 +39 +39 очень
душно
1008.5 1006.7
21 19.04 штиль 0 10 км мгла 8/1 720 м
[Sc Ac lent Ci sp]
+26.4 +24.6 90 +37 +37 очень
душно
1007.3 1005.5
00 20.04 штиль 0 8000 м мгла 9/4 <50 м
[Cb cap Ac lent Ci sp]
+26.0 +24.4 91 +36 +37 очень
душно
1008.3 1006.5 +25.2
03 20.04 СЗ 2 20 км мгла 9/4 570 м
[Cu med, cong Ac trans Ci sp]
+31.1 +25.5 72 +45 +51 опасность
перегрева
1009.7 1007.9
06 20.04 В 2 15 км мгла 9/5 570 м
[Cu med, cong Ac lent Ci sp]
+33.3 +27.3 71 +52 +58 опасность
перегрева
1006.8 1005.1
09 20.04 В 4 12 км мгла 9/3 570 м
[Cu med, cong Ac lent Ci sp]
+32.3 +26.1 70 +48 +50 опасность
перегрева
1004.7 1003.0
12 20.04 В 1 12 км мгла 8/1 720 м
[Sc Ac trans Ci sp]
+29.5 +25.0 77 +43 +43 опасность
перегрева
1006.1 1004.3 +33.7
15 20.04 штиль 0 12 км мгла 8/1 720 м
[Sc Ac trans Ci sp]
+28.1 +25.3 85 +41 +41 опасность
перегрева
1008.7 1006.9
18 20.04 ЮЗ 1 12 км мгла 8/1 720 м
[Sc Ac trans Ci fib]
+26.9 +25.1 90 +39 +39 очень
душно
1007.8 1006.0
21 20.04 З 1 12 км мгла 8/1 750 м
[Sc Ac trans Ci sp]
+25.8 +24.6 93 +36 +36 очень
душно
1006.6 1004.8
00 21.04 С 1 10 км мгла 9/1 <50 м
[Sc Ac trans Ci sp]
+25.6 +24.6 94 +36 +37 очень
душно
1007.5 1005.7 +24.6
03 21.04 Ю 1 15 км мгла 9/4 570 м
[Cu med, cong Ac trans Ci sp]
+30.6 +25.8 76 +46 +52 опасность
перегрева
1008.1 1006.3
06 21.04 ЮВ 2 16 км мгла 9/4 570 м
[Cu med, cong Ac trans Ci sp]
+33.7 +26.3 65 +50 +58 опасность
перегрева
1005.6 1003.9
09 21.04 В 3 14 км мгла 9/4 570 м
[Cu med, cong Ac trans Ci sp]
+31.8 +25.9 71 +47 +49 опасность
перегрева
1004.2 1002.5
12 21.04 В 2 10 км мгла 8/1 720 м
[Sc Ac trans Ci sp]
+29.3 +26.0 82 +44 +44 опасность
перегрева
1005.5 1003.7 +34.0
15 21.04 З 1 10 км мгла 8/1 720 м
[Sc Ac trans Ci sp]
+27.1 +25.6 92 +40 +40 очень
душно
1007.6 1005.8
18 21.04 штиль 0 10 км мгла 8/1 750 м
[Sc Ac trans Ci sp]
+26.1 +25.1 94 +37 +37 очень
душно
1006.4 1004.6
21 21.04 штиль 0 12 км мгла 9/3 750 м
[Sc Ac trans Ci sp]
+25.1 +24.5 96 +35 +35 очень
душно
1005.8 1004.0
00 22.04 штиль 0 8000 м мгла 8/3 240 м
[Sc diur, vesp Ac trans Ci sp]
+25.5 +24.7 95 +36 +37 очень
душно
1007.1 1005.3 +24.8
03 22.04 СВ 2 14 км мгла 9/3 570 м
[Cu med, cong Ac trans Ci sp]
+32.0 +25.9 70 +47 +54 опасность
перегрева
1008.2 1006.4
06 22.04 ЮВ 4 16 км мгла 9/4 570 м
[Cu med, cong Ac trans Ci sp]
+33.7 +26.0 64 +49 +55 опасность
перегрева
1006.3 1004.6
09 22.04 В 4 16 км мгла 9/4 500 м
[Cb cap Ac trans Ci sp]
+31.9 +25.8 70 +47 +49 опасность
перегрева
1004.8 1003.1
12 22.04 В 2 14 км мгла 9/1 720 м
[Sc Ac lent Ci sp]
+29.7 +25.8 80 +44 +44 опасность
перегрева
1006.0 1004.2 +34.3
15 22.04 С 1 12 км мгла 9/3 720 м
[Sc Ac trans Ci sp]
+27.5 +25.3 88 +40 +40 очень
душно
1008.3 1006.5
18 22.04 СЗ 1 10 км мгла 9/3 720 м
[Sc Ac trans Ci sp]
+26.1 +24.8 93 +37 +37 очень
душно
1007.4 1005.6
21 22.04 С 2 10 км мгла 9/3 720 м
[Sc Ac trans Ci sp]
+25.4 +24.4 94 +35 +35 очень
душно
1006.7 1004.9

 

Местоположение метеостанции Куантане (Малайзия): широта 3.78 долгота 103.21 высота над уровнем моря 16 м.

В архиве по умолчанию представлена погода в Куантане за последнюю неделю. Архивные данные за месяц целиком и за предыдущие месяцы, начиная с января 2011 года, Вы можете получить, выбрав интересующий диапазон дат из раскрывающегося списка и нажав кнопку "Ввод!".


*Определитесь, кто Вы:
робот инопланетянин человек

Внимание! Время в таблицах - всемирное. Для получения местного времени необходимо прибавить поправку, которая равна 7 ч.

Смотрите также архив погоды в соседних городах и на ближайших метеорологических станциях:

Погода в Куала-Тренггану (Малайзия) (178 км)
Погода в Мерсинге (Малайзия) (198 км)
Погода в Куала-Лумпуре (Малайзия) (198 км)
Погода в Малакке (Малайзия) (199 км)
Погода в Куала-Лумпур аэропорту (Малайзия) (205 км)
Погода на Нагорье Кэмерон (Малайзия) (218 км)
Погода в Аэропорту Сеная (Малайзия) (245 км)
Погода в Ипохе (Малайзия) (250 км)
Погода в Сингапуре (Сингапур) (281 км)
Погода в Ситаване (Малайзия) (283 км)

Пояснения к столбцам:

Ветер - указаны скорость ветра в м/с - средняя за 10 мин, порывы в срок и между сроками (в фигурных скобках) и направление, откуда дует ветер: С - северный, СВ - северо-восточный, В - восточный, ЮВ - юго-восточный, Ю - южный, ЮЗ - юго-западный, З - западный, СЗ - северо-западный.
Видимость - горизонтальная дальность видимости в метрах или километрах. При видимости от 1 до 10 км при отсутствии осадков обычно наблюдается дымка, при ухудшении видимости до 1 км и менее - туман. В сухую погоду видимость может ухудшаться дымом, пылью или мглою.
Явления - указаны атмосферные явления, наблюдавшиеся в срок или в последний час перед сроком; фигурными скобками обозначены явления, наблюдавшиеся между сроками (за 1-3 часа до срока); квадратными скобками обозначены град или гололедные отложения с указанием их диаметра в мм.
Облачность - указаны через наклонную черту общая и нижняя облачность в баллах и высота нижней границы облаков в метрах; квадратными скобками обозначены формы облаков: Ci - перистые, Cs - перисто-слоистые, Cc - перисто-кучевые, Ac - высококучевые, As - высокослоистые, Sc - слоисто-кучевые, Ns - слоисто-дождевые, Cu - кучевые, Cb - кучево-дождевые. Подробнее классификацию облаков см. в Атласе облаков (PDF).
T - Температура воздуха - температура, измеренная на высоте 2 м над землей.
Td - Температура точки росы - температура, при понижении до которой содержащийся в воздухе водяной пар достигнет насыщения.
f - Относительная влажность воздуха - влажноcть воздуха, измеренная на высоте 2 м над землей.
Te - Эффективная температура - температура, которую ощущает одетый по сезону человек в тени. Характеристика душности погоды. При расчете учитывается влияние влажности воздуха и скорости ветра на теплоощущения человека.
Tes - Эффективная температура на солнце - температура, которую ощущает человек, с поправкой на солнечный нагрев. Характеристика знойности погоды. Зависит от высоты солнца над горизонтом, облачности и скорости ветра. Ночью, в пасмурную погоду, а также при ветре 12 м/с и более поправка равна нулю.
P - Атмосферное давление - приведенное к уровню моря атмосферное давление.
Po - Атмосферное давление - измеренное на уровне метеостанции атмосферное давление.
Tmin - Минимальная температура - минимум температуры воздуха на высоте 2 м над землей.
Tmax - Максимальная температура - максимум температуры воздуха на высоте 2 м над землей.
R - Количество осадков - Количество выпавших осадков за период времени, мм. При наведении курсора мыши на число - период времени, за который выпало указанное количество осадков.
R24 - Количество осадков - Количество выпавших осадков за 24 часа, мм.
S - Снежный покров - Высота снежного покрова, см. При наведении курсора мыши на число - состояние снежного покрова и степень покрытия местности в баллах.